Terminal Aerodrome Forecast
Issued by NWS

Home | Current Version | Previous Version | Graphics & Text | Print | Product List | Glossary On
Versions: 1 2 3 4 5 6 7 8 9 10 11 12 13 14 15 16 17 18 19 20 21 22 23
715
FTUS42 KMHX 221748 AAF
TAFPGV
TAF AMD
KPGV 221748Z 2218/2318 05006KT P6SM VCTS BKN035CB
     FM230000 05006KT P6SM VCTS BKN025CB
     FM230200 05005KT P6SM VCSH BKN008 OVC025
     FM230900 VRB04KT 3SM BR BKN003 OVC040
     FM231300 VRB04KT P6SM BKN008 OVC020
     FM231500 02005KT P6SM OVC040
      AMD LTD TO CLD VIS AND WIND=

USA.gov is the U.S. government's official web portal to all federal, state and local government web resources and services.